Location: Cornospital
(48.0620°N, 3.3837°W)
Time: 21:25:24
(UTC+00:00)

GENESIS II - Pass Details

Date: 30 October 2021
Orbit: 494 x 529 km, 64.5° (Epoch: 28 November)

Event Time Altitude Azimuth Distance (km) Brightness Sun altitude
Rises 17:37:51 0° 317° (NW) 2,639 8.2 -7.2°
Reaches altitude 10° 17:40:03 10° 312° (NW) 1,754 7.4 -7.6°
Maximum altitude 17:43:52 50° 237° (WSW) 673 5.3 -8.2°
Drops below altitude 10° 17:47:41 10° 162° (SSE) 1,759 6.8 -8.8°
Sets 17:49:54 0° 157° (SSE) 2,647 7.7 -9.2°
